• In Czech Republic
  • List of Countries
  • For 7 days
  • Water Temperature
  • Satellite Maps
  • Weather Map
  • Weather Widgets
  • user-avatar
    Login

    Hourly Weather Gjirokaster

    Today, 22 June, Friday

    Time Temperature Precipitation Wind Pressure Humidity
    00:00 +14°C° 0 mm 1 mps 652 mmHg 78%
    01:00 +13°C° 0 mm 1 mps 652 mmHg 77%
    02:00 +13°C° 0 mm 1 mps 652 mmHg 78%
    03:00 +13°C° 0 mm 1 mps 652 mmHg 78%
    04:00 +12°C° 0 mm 1 mps 652 mmHg 78%
    05:00 +14°C° 0 mm 1 mps 652 mmHg 74%
    06:00 +15°C° 0 mm 1 mps 652 mmHg 70%
    07:00 +18°C° 0 mm 1 mps 653 mmHg 67%
    08:00 +19°C° 0 mm 1 mps 653 mmHg 63%
    09:00 +19°C° 0 mm 2 mps 653 mmHg 59%
    10:00 +20°C° 0 mm 2 mps 653 mmHg 55%
    11:00 +21°C° 0.2 mm 2 mps 653 mmHg 56%
    12:00 +21°C° 0.2 mm 3 mps 653 mmHg 56%
    13:00 +21°C° 0.2 mm 3 mps 653 mmHg 57%
    14:00 +21°C° 0.7 mm 3 mps 653 mmHg 60%
    15:00 +20°C° 0.7 mm 3 mps 652 mmHg 63%
    16:00 +20°C° 0.7 mm 3 mps 652 mmHg 66%
    17:00 +19°C° 0.4 mm 2 mps 652 mmHg 71%
    18:00 +17°C° 0.4 mm 2 mps 651 mmHg 77%
    19:00 +16°C° 0.4 mm 1 mps 651 mmHg 82%
    20:00 +15°C° 0.1 mm 1 mps 651 mmHg 84%
    21:00 +14°C° 0.1 mm 1 mps 651 mmHg 86%
    22:00 +14°C° 0.1 mm 1 mps 651 mmHg 88%
    23:00 +13°C° 0 mm 1 mps 651 mmHg 88%

    Tomorrow, 23 June, Saturday

    Time Temperature Precipitation Wind Pressure Humidity
    00:00 +13°C° 0 mm 1 mps 651 mmHg 89%
    01:00 +12°C° 0 mm 1 mps 651 mmHg 89%
    02:00 +12°C° 0 mm 1 mps 651 mmHg 89%
    03:00 +12°C° 0 mm 1 mps 650 mmHg 89%
    04:00 +12°C° 0 mm 1 mps 650 mmHg 89%
    05:00 +13°C° 0 mm 1 mps 651 mmHg 84%
    06:00 +15°C° 0 mm 1 mps 651 mmHg 79%
    07:00 +16°C° 0 mm 1 mps 652 mmHg 74%
    08:00 +16°C° 0.4 mm 1 mps 652 mmHg 74%
    09:00 +18°C° 0.4 mm 1 mps 652 mmHg 74%
    10:00 +17°C° 0.4 mm 2 mps 653 mmHg 74%
    11:00 +17°C° 0.9 mm 2 mps 653 mmHg 75%
    12:00 +17°C° 0.9 mm 2 mps 653 mmHg 76%
    13:00 +16°C° 0.9 mm 2 mps 652 mmHg 76%
    14:00 +17°C° 0.4 mm 2 mps 652 mmHg 74%
    15:00 +17°C° 0.4 mm 2 mps 652 mmHg 71%
    16:00 +18°C° 0.4 mm 2 mps 652 mmHg 69%
    17:00 +17°C° 0.2 mm 2 mps 652 mmHg 73%
    18:00 +16°C° 0.2 mm 2 mps 652 mmHg 76%
    19:00 +15°C° 0.2 mm 2 mps 652 mmHg 80%
    20:00 +13°C° 0 mm 3 mps 652 mmHg 81%
    21:00 +12°C° 0 mm 3 mps 652 mmHg 82%
    22:00 +11°C° 0 mm 3 mps 652 mmHg 83%
    23:00 +10°C° 0 mm 3 mps 652 mmHg 82%

    Day after tomorrow, 24 June, Sunday

    Time Temperature Precipitation Wind Pressure Humidity
    00:00 +10°C° 0 mm 2 mps 651 mmHg 81%
    01:00 +10°C° 0 mm 2 mps 651 mmHg 80%
    02:00 +9°C° 0 mm 2 mps 651 mmHg 78%
    03:00 +9°C° 0 mm 2 mps 651 mmHg 76%
    04:00 +9°C° 0 mm 2 mps 651 mmHg 74%
    05:00 +10°C° 0 mm 2 mps 651 mmHg 71%
    06:00 +12°C° 0 mm 2 mps 652 mmHg 68%
    07:00 +14°C° 0 mm 2 mps 652 mmHg 65%
    08:00 +15°C° 0 mm 2 mps 652 mmHg 61%
    09:00 +18°C° 0 mm 1 mps 653 mmHg 57%
    10:00 +19°C° 0 mm 1 mps 653 mmHg 53%
    11:00 +20°C° 0.1 mm 1 mps 653 mmHg 54%
    12:00 +20°C° 0.1 mm 1 mps 653 mmHg 54%
    13:00 +20°C° 0.1 mm 2 mps 653 mmHg 54%
    14:00 +19°C° 0.3 mm 2 mps 653 mmHg 56%
    15:00 +19°C° 0.3 mm 2 mps 653 mmHg 58%
    16:00 +19°C° 0.3 mm 2 mps 652 mmHg 61%
    17:00 +17°C° 0.3 mm 2 mps 652 mmHg 66%
    18:00 +16°C° 0.3 mm 2 mps 652 mmHg 70%
    19:00 +15°C° 0.3 mm 2 mps 652 mmHg 75%
    20:00 +14°C° 0.1 mm 2 mps 652 mmHg 77%
    21:00 +13°C° 0.1 mm 2 mps 652 mmHg 78%
    22:00 +13°C° 0.1 mm 2 mps 652 mmHg 79%
    23:00 +12°C° 0.1 mm 2 mps 651 mmHg 80%

    25 June, Monday

    Time Temperature Precipitation Wind Pressure Humidity
    00:00 +12°C° 0.1 mm 2 mps 651 mmHg 82%
    01:00 +12°C° 0.1 mm 2 mps 651 mmHg 83%
    02:00 +12°C° 0.3 mm 2 mps 651 mmHg 84%
    03:00 +10°C° 0.3 mm 2 mps 650 mmHg 86%
    04:00 +10°C° 0.3 mm 2 mps 650 mmHg 87%
    05:00 +12°C° 0.5 mm 2 mps 650 mmHg 85%
    06:00 +13°C° 0.5 mm 2 mps 650 mmHg 84%
    07:00 +13°C° 0.5 mm 2 mps 650 mmHg 82%
    08:00 +14°C° 0.9 mm 2 mps 651 mmHg 80%
    09:00 +14°C° 0.9 mm 2 mps 651 mmHg 78%
    10:00 +14°C° 0.9 mm 2 mps 651 mmHg 76%
    11:00 +14°C° 1.4 mm 2 mps 651 mmHg 78%
    12:00 +14°C° 1.4 mm 2 mps 651 mmHg 79%
    13:00 +14°C° 1.4 mm 2 mps 650 mmHg 80%
    14:00 +14°C° 1.3 mm 2 mps 650 mmHg 83%
    15:00 +13°C° 1.3 mm 2 mps 650 mmHg 85%
    16:00 +13°C° 1.3 mm 2 mps 650 mmHg 88%
    17:00 +12°C° 1.1 mm 3 mps 650 mmHg 89%
    18:00 +11°C° 1.1 mm 3 mps 650 mmHg 89%
    19:00 +11°C° 1.1 mm 3 mps 650 mmHg 90%
    20:00 +11°C° 0.3 mm 3 mps 650 mmHg 90%
    21:00 +10°C° 0.3 mm 3 mps 649 mmHg 90%
    22:00 +10°C° 0.3 mm 3 mps 649 mmHg 89%
    23:00 +10°C° 0.4 mm 3 mps 649 mmHg 89%

    26 June, Tuesday

    Time Temperature Precipitation Wind Pressure Humidity
    00:00 +9°C° 0.4 mm 3 mps 648 mmHg 89%
    01:00 +9°C° 0.4 mm 2 mps 648 mmHg 88%
    02:00 +9°C° 0.6 mm 3 mps 648 mmHg 89%
    03:00 +9°C° 0.6 mm 3 mps 647 mmHg 89%
    04:00 +9°C° 0.6 mm 3 mps 647 mmHg 90%
    05:00 +9°C° 0.4 mm 3 mps 647 mmHg 90%
    06:00 +9°C° 0.4 mm 2 mps 647 mmHg 89%
    07:00 +10°C° 0.4 mm 2 mps 647 mmHg 89%
    08:00 +10°C° 0.2 mm 2 mps 647 mmHg 86%
    09:00 +12°C° 0.2 mm 2 mps 647 mmHg 83%
    10:00 +13°C° 0.2 mm 2 mps 648 mmHg 80%
    11:00 +13°C° 0.1 mm 2 mps 648 mmHg 78%
    12:00 +14°C° 0.1 mm 2 mps 648 mmHg 76%
    13:00 +14°C° 0.1 mm 2 mps 648 mmHg 74%
    14:00 +15°C° 0.1 mm 2 mps 648 mmHg 71%
    15:00 +16°C° 0.1 mm 2 mps 648 mmHg 68%
    16:00 +16°C° 0.1 mm 2 mps 648 mmHg 65%
    17:00 +15°C° 0.1 mm 2 mps 648 mmHg 70%
    18:00 +14°C° 0.1 mm 2 mps 648 mmHg 74%
    19:00 +13°C° 0.1 mm 2 mps 648 mmHg 79%
    20:00 +12°C° 0 mm 2 mps 648 mmHg 81%
    21:00 +12°C° 0 mm 2 mps 648 mmHg 82%
    22:00 +10°C° 0 mm 2 mps 648 mmHg 84%
    23:00 +10°C° 0.1 mm 2 mps 647 mmHg 84%

    27 June, Wednesday

    Time Temperature Precipitation Wind Pressure Humidity
    00:00 +10°C° 0.1 mm 2 mps 647 mmHg 84%
    01:00 +10°C° 0.1 mm 2 mps 647 mmHg 85%
    02:00 +10°C° 0.3 mm 2 mps 647 mmHg 85%
    03:00 +10°C° 0.3 mm 2 mps 647 mmHg 86%
    04:00 +10°C° 0.3 mm 2 mps 647 mmHg 87%
    05:00 +12°C° 0.2 mm 2 mps 647 mmHg 84%
    06:00 +13°C° 0.2 mm 2 mps 647 mmHg 82%
    07:00 +13°C° 0.2 mm 2 mps 648 mmHg 79%
    08:00 +14°C° 0.5 mm 2 mps 648 mmHg 76%
    09:00 +15°C° 0.5 mm 2 mps 648 mmHg 72%
    10:00 +16°C° 0.5 mm 2 mps 648 mmHg 68%
    11:00 +16°C° 1.1 mm 2 mps 648 mmHg 71%
    12:00 +16°C° 1.1 mm 1 mps 648 mmHg 73%
    13:00 +15°C° 1.1 mm 1 mps 648 mmHg 76%
    14:00 +15°C° 1.2 mm 1 mps 648 mmHg 79%
    15:00 +15°C° 1.2 mm 1 mps 648 mmHg 82%
    16:00 +14°C° 1.2 mm 1 mps 648 mmHg 85%
    17:00 +14°C° 0.5 mm 1 mps 648 mmHg 86%
    18:00 +13°C° 0.5 mm 1 mps 648 mmHg 87%
    19:00 +13°C° 0.5 mm 1 mps 648 mmHg 88%
    20:00 +12°C° 0 mm 1 mps 648 mmHg 88%
    21:00 +12°C° 0 mm 1 mps 648 mmHg 88%
    22:00 +11°C° 0 mm 1 mps 648 mmHg 88%
    23:00 +11°C° 0 mm 1 mps 648 mmHg 88%
    Show more